FW1030 Weather Reports


Display with metric or nautical units.
time (UTC)temp
F
wind
direction
speed
MPH
gust
MPH
rain 1hr
in
rain 24hr
in
rain mn
in
humidity
%
barometer
mb
20210801073124 84 54 0.0 0.0 0.00 0.08 0.00 78 1016.7
20210801071604 84 81 0.0 0.0 0.00 0.08 0.00 78 1016.8
20210801070053 84 73 0.0 0.0 0.00 0.08 0.00 77 1016.9
20210801064615 84 47 0.0 0.0 0.00 0.08 0.00 77 1016.9
20210801063111 84 79 0.0 0.0 0.00 0.08 0.00 78 1016.9
20210801061558 84 90 0.0 0.0 0.00 0.08 0.00 77 1017.2
20210801060059 84 74 0.0 0.0 0.00 0.08 0.00 77 1017.3
20210801054542 84 75 0.0 0.0 0.00 0.08 0.00 77 1017.5
20210801053103 84 42 0.0 0.0 0.00 0.08 0.00 77 1017.6
20210801051541 84 83 0.0 0.0 0.00 0.08 0.00 77 1017.6
20210801050025 84 56 0.0 0.0 0.00 0.08 0.00 77 1017.7
20210801044532 84 11 0.0 0.0 0.00 0.08 0.00 77 1017.7
20210801043038 85 49 0.0 0.0 0.00 0.08 0.00 77 1017.8
20210801041538 84 26 0.0 0.0 0.00 0.08 0.00 77 1017.8
20210801040052 85 71 0.0 0.0 0.00 0.08 0.00 77 1017.8
20210801034550 85 53 0.0 0.0 0.00 0.08 0.00 78 1018.0
20210801033027 85 77 0.0 0.0 0.00 0.08 0.00 77 1017.9
20210801031520 85 65 0.0 0.0 0.00 0.08 0.00 77 1018.2
20210801030112 85 94 0.0 0.0 0.00 0.08 0.00 77 1017.9
20210801024557 85 32 0.0 0.0 0.00 0.08 0.00 77 1018.0
20210801023131 85 46 0.0 0.0 0.00 0.08 0.00 77 1018.2
20210801021615 85 69 0.0 0.0 0.00 0.08 0.00 76 1018.3
20210801020119 85 88 0.0 0.0 0.00 0.08 0.00 76 1018.2
20210801014646 85 80 0.0 0.0 0.00 0.08 0.00 76 1018.2
20210801013220 85 42 0.0 0.0 0.00 0.08 0.00 75 1018.1
20210801011528 85 33 0.0 0.0 0.00 0.08 0.00 74 1017.9
20210801010117 85 48 0.0 0.0 0.00 0.08 0.00 74 1018.1
20210801004551 85 40 0.0 0.0 0.00 0.08 0.00 73 1018.1
20210801003030 85 85 0.0 0.0 0.00 0.08 0.00 73 1017.9
20210801001550 85 72 0.0 0.0 0.00 0.08 0.00 73 1017.9
20210801000050 85 72 0.0 0.0 0.00 0.08 0.00 75 1017.6
20210731234535 86 19 0.0 0.0 0.00 0.08 0.00 75 1017.6
20210731233036 86 26 0.0 0.0 0.00 0.08 0.00 75 1017.6
20210731231619 86 22 0.0 0.0 0.00 0.08 0.00 74 1017.5
20210731230019 86 49 0.0 0.0 0.00 0.08 0.00 73 1017.3
20210731224636 86 34 0.0 0.0 0.00 0.08 0.00 73 1017.1
20210731223128 87 63 0.0 0.0 0.00 0.08 0.00 73 1017.1
20210731221617 87 38 0.0 0.0 0.00 0.08 0.00 72 1017.0
20210731220046 87 24 0.0 0.0 0.00 0.08 0.00 72 1017.0
20210731213244 87 70 0.0 0.0 0.00 0.08 0.00 72 1017.2
20210731211619 87 101 0.0 0.0 0.00 0.08 0.00 72 1017.2
20210731210107 88 42 0.0 0.0 0.00 0.08 0.00 72 1017.3
20210731204601 88 39 0.0 0.0 0.00 0.08 0.00 71 1017.5
20210731203057 88 360 0.0 0.0 0.00 0.08 0.00 71 1017.3
20210731201558 88 30 0.0 0.0 0.00 0.08 0.00 71 1017.4
20210731200105 88 28 0.0 0.0 0.00 0.08 0.00 71 1017.7
20210731194550 88 62 0.0 0.0 0.00 0.08 0.00 70 1017.8
20210731193108 88 47 0.0 0.0 0.00 0.08 0.00 68 1018.0
20210731191619 88 38 0.0 0.0 0.00 0.08 0.00 71 1018.0
20210731190115 88 42 0.0 0.0 0.00 0.08 0.00 71 1017.9
20210731184600 88 65 0.0 0.0 0.00 0.08 0.00 72 1017.9
20210731183109 88 52 0.0 0.0 0.00 0.08 0.00 71 1017.9
20210731181519 88 99 0.0 0.0 0.00 0.08 0.00 70 1018.1
20210731180025 88 29 0.0 0.0 0.00 0.08 0.00 70 1018.0
20210731174525 88 60 0.0 0.0 0.00 0.08 0.00 73 1018.1
20210731173013 88 45 0.0 0.0 0.00 0.08 0.00 72 1018.2
20210731171511 87 59 0.0 0.0 0.00 0.08 0.00 72 1018.4
20210731170020 87 28 0.0 0.0 0.00 0.08 0.00 72 1018.6
20210731164606 88 44 0.0 0.0 0.00 0.08 0.00 72 1018.7
20210731163018 87 32 0.0 0.0 0.00 0.08 0.00 73 1018.6
20210731161608 87 61 0.0 0.0 0.00 0.08 0.00 73 1018.7
20210731160144 87 76 0.0 0.0 0.00 0.08 0.00 72 1018.8
20210731154543 87 84 0.0 0.0 0.00 0.08 0.00 73 1018.8
20210731153054 87 30 0.0 0.0 0.00 0.08 0.00 73 1018.8
20210731151605 86 55 0.0 0.0 0.00 0.08 0.00 74 1018.8
20210731150100 87 89 0.0 0.0 0.00 0.08 0.00 74 1018.8
20210731144732 86 76 0.0 0.0 0.00 0.08 0.00 74 1018.6
20210731143203 86 98 0.0 0.0 0.00 0.08 0.00 75 1018.5
20210731141717 86 83 0.0 0.0 0.00 0.08 0.00 75 1018.4
20210731140137 85 81 0.0 0.0 0.00 0.08 0.00 76 1018.3
20210731134605 85 83 0.0 0.0 0.00 0.12 0.00 76 1018.2
20210731133138 85 90 0.0 0.0 0.00 0.12 0.00 79 1018.3
20210731131548 85 41 0.0 0.0 0.00 0.12 0.00 80 1018.2
20210731130047 84 114 0.0 0.0 0.00 0.12 0.00 82 1018.2
20210731124608 84 82 0.0 0.0 0.00 0.19 0.12 83 1018.1
20210731123048 83 342 0.0 0.0 0.00 0.19 0.12 84 1018.1
20210731121545 83 59 0.0 0.0 0.08 0.19 0.12 86 1017.9
20210731120034 82 44 0.0 0.0 0.08 0.19 0.12 87 1017.7
20210731114507 82 63 0.0 0.0 0.08 0.19 0.12 86 1017.8
20210731113022 82 178 0.0 0.0 0.08 0.19 0.12 81 1017.7
20210731111501 83 75 0.0 0.0 0.00 0.11 0.04 79 1017.5
20210731110153 83 78 0.0 0.0 0.00 0.11 0.04 79 1017.5
20210731104658 83 88 0.0 0.0 0.00 0.11 0.04 80 1017.3
20210731103127 82 98 0.0 0.0 0.00 0.11 0.04 82 1017.4
20210731101732 82 115 0.0 0.0 0.00 0.11 0.04 81 1017.3
20210731100146 82 115 0.0 0.0 0.00 0.11 0.04 81 1017.2
20210731094611 83 115 0.0 0.0 0.00 0.11 0.04 80 1017.1
20210731093200 83 115 0.0 0.0 0.00 0.11 0.04 81 1017.4
20210731091627 83 86 0.0 0.0 0.00 0.11 0.04 80 1017.4
20210731090114 83 86 0.0 0.0 0.00 0.11 0.04 79 1017.3
20210731084718 83 86 0.0 0.0 0.00 0.11 0.04 79 1017.2
20210731083040 84 86 0.0 0.0 0.00 0.11 0.04 78 1017.0
20210731081554 84 76 0.0 0.0 0.00 0.11 0.04 78 1017.1
20210731080020 84 42 0.0 0.0 0.00 0.11 0.04 78 1017.2
20210731074543 84 36 0.0 0.0 0.00 0.11 0.04 78 1017.2